Regional Weather Roundup
Issued by NWS

Home | Current Version | Previous Version | Graphics & Text | Print | Product List | Glossary On
Versions: 1 2 3 4 5 6 7 8 9 10 11 12 13 14 15 16 17 18 19 20 21 22 23 24 25 26 27 28 29 30 31 32 33 34 35 36 37 38 39 40 41 42 43 44 45 46 47 48 49 50
000
ASUS43 KMKX 251011
RWRWI

WISCONSIN REGIONAL WEATHER ROUNDUP
NATIONAL WEATHER SERVICE MILWAUKEE/SULLIVAN WI
500 AM CDT WED MAY 25 2016

NOTE: "FAIR" INDICATES FEW OR NO CLOUDS BELOW 12,000 FEET WITH NO
SIGNIFICANT WEATHER AND/OR OBSTRUCTIONS TO VISIBILITY.

WIZ001-002-006>008-014>016-023>028-251100-
NORTHWEST WISCONSIN

CITY           SKY/WX    TMP DP  RH WIND       PRES   REMARKS
SUPERIOR ARPT  CLOUDY    45  45 100 E6        30.03F FOG
ASHLAND        FOG       49  49 100 N6        30.03S VSB 1/4
HAYWARD        CLOUDY    50  49  96 NE6       29.99F FOG
SIREN          CLOUDY    58  57  98 E3        29.96F FOG
CUMBERLAND     PTCLDY    55  55 100 NE3       29.96F
RICE LAKE      PTCLDY    61  57  87 E5        29.97F
CHETEK         PTCLDY    57  56  97 SE6       29.95F
LADYSMITH      CLOUDY    59  58  96 E7        29.99F
EAU CLAIRE     CLOUDY    59  56  89 NE8       29.92F
MENOMONIE      CLOUDY    57  55  92 CALM      29.93F
NEW RICHMOND   CLOUDY    60  55  81 SE6       29.91F
OSCEOLA        CLOUDY    61  60  95 CALM      29.94F
$$

WIZ003>005-009-010-017-018-251100-
NORTH CENTRAL WISCONSIN

CITY           SKY/WX    TMP DP  RH WIND       PRES   REMARKS
MANITOWISH WTR NOT AVBL
ARBOR VITAE    FOG       57  56  96 CALM      30.03R VSB 1/2
WOODRUFF       FOG       57  56  96 CALM      30.03R VSB 1/2
RHINELANDER    FOG       54  53  97 NE6       30.03S VSB 1/4
EAGLE RIVER    FOG       58  58 100 CALM      30.03S VSB 3/4
LAND O LAKES   FOG       57  57 100 E3        30.04F VSB 3/4
PHILLIPS       CLOUDY    50  50 100 N3        30.00S FOG
TOMAHAWK       FOG       47  47  97 CALM      30.02R VSB<1/4
MEDFORD        CLOUDY    55  55 100 CALM      29.99F
MERRILL        FOG       47  47 100 CALM      30.01S VSB 3/4
$$

WIZ029-030-035-036-043>047-251100-
CENTRAL WISCONSIN

CITY           SKY/WX    TMP DP  RH WIND       PRES   REMARKS
WAUSAU         CLEAR     57  54  89 CALM      29.98S
MOSINEE        CLEAR     57  55  94 NE5       30.00S
MARSHFIELD     CLOUDY    60  56  86 NE8       29.96F
STEVENS POINT  CLOUDY    51  50  99 NE6       29.99S
WAUPACA        CLOUDY    57  56  97 CALM      29.99R
WAUTOMA        NOT AVBL
WISC RAPIDS    CLOUDY    54  52  93 CALM      29.97F
CAMP DOUGLAS   CLOUDY    50  50 100 S1        29.94F
$$

WIZ011>013-019>022-031-037>040-048>050-251100-
NORTHEAST WISCONSIN

CITY           SKY/WX    TMP DP  RH WIND       PRES   REMARKS
ANTIGO         CLEAR     52  52 100 E5        30.02S
SHAWANO        CLOUDY    60  58  91 NE10      30.01S FOG
OCONTO         CLOUDY   N/A N/A N/A NE6       30.01S
STURGEON BAY   NOT AVBL
GREEN BAY      CLOUDY    58  57  97 NE13      30.00S FOG
MANITOWOC      CLEAR     56  54  93 N5        30.00R FOG
APPLETON       CLEAR     59  54  82 NE7       29.98S
CLINTONVILLE   CLEAR     57  55  94 NE5       30.00R
OSHKOSH        CLEAR     58  55  90 CALM      29.97F
$$

WIZ032>034-041-042-053>061-251100-
SOUTHWEST WISCONSIN

CITY           SKY/WX    TMP DP  RH WIND       PRES   REMARKS
LA CROSSE      CLEAR     61  57  87 E5        29.90F
SPARTA         PTCLDY    50  50 100 CALM      29.93F
VIROQUA        CLEAR     61  57  87 E8        29.93F
BOSCOBEL       CLOUDY    59  58  96 CALM      29.92F FOG
PRAIRIE DU CHI PTCLDY    60  58  94 E3        29.90F
PLATTEVILLE    CLEAR     64  61  89 E6        29.93S
$$

WIZ056-057-062-063-064-067-068-251100-
SOUTH CENTRAL WISCONSIN

CITY           SKY/WX    TMP DP  RH WIND       PRES   REMARKS
REEDSBURG      CLOUDY    55  55 100 CALM      29.93F
BARABOO/DELLS  CLOUDY    56  54  92 CALM      29.94F
LONE ROCK      CLOUDY    58  57  97 N3        29.94F
MINERAL POINT  PTCLDY    64  59  82 E5        29.93F
MADISON        PTCLDY    60  58  92 CALM      29.94F
MIDDLETON      PTCLDY    59  59 100 CALM      29.94F
WATERTOWN      CLEAR     61  61 100 CALM      29.95F
MONROE         CLEAR     63  59  88 CALM      29.93F
JANESVILLE     CLEAR     63  61  94 SE5       29.93F
$$

WIZ051-052-058>065-066-070>072-251100-
SOUTHEAST WISCONSIN

CITY           SKY/WX    TMP DP  RH WIND       PRES   REMARKS
MILWAUKEE      PTCLDY    66  57  72 CALM      29.96F
WAUKESHA         N/A     57  57 100 CALM      29.98S FOG
MILWAUKEE/TIMM PTCLDY    61  57  88 CALM      29.98S FOG
RACINE         CLEAR     68  59  73 SW7       29.97F
BURLINGTON     CLEAR     61  57  86 CALM      29.95F
KENOSHA        CLEAR     67  60  78 SW7       29.96F
FOND DU LAC    CLOUDY    56  54  93 CALM      29.98S
SHEBOYGAN      CLEAR     55  53  93 S3        29.98R
WEST BEND      PTCLDY    57  55  94 CALM      29.98S
JUNEAU         CLOUDY    62  59  88 NE6       29.97F
$$

LSZ147-162-251100-
LAKE SUPERIOR

STATION/POSITION TIME  TEMP    WIND        PRES    WAVE
                       AIR SEA DIR/SP/G            HT/PER
                 (UTC) (F)     (DEG/KT/KT) (MB)    (FT/S)
W MID LAKE BUOY  0950   40 38   40/  8/  8 1018.5R   1/ 4
DEVILS ISLAND    1000   44      50/ 14/ 15 1017.8F
SAXON HARBOR     0900   46      CALM  /  2 1016.6R
$$

LMZ867-665-643>646-251100-
LAKE MICHIGAN

STATION/POSITION TIME  TEMP    WIND        PRES    WAVE
                       AIR SEA DIR/SP/G            HT/PER
                 (UTC) (F)     (DEG/KT/KT) (MB)    (FT/S)
CHAMBERS ISLAND  0900   54      10/ 14/ 17 1016.6R
N MID LAKE BUOY  0950   48 44   20/  4/  6 1016.6R   1/ 4
NORTHPORT PIER   0900   52     350/ 12/ 15 1016.6R
SISTER BAY       0934   52     360/  9/ 12   N/A
ALGOMA LAKESHORE 0947           40/  9/ 14   N/A
KEWAUNEE LAKESHO 0900   50      10/  7/ 10 1015.4R
SHEBOYGAN LAKESH 1000   61     180/  2/  4 1015.5R
PORT WASHINGTON  0900   60      CALM  /  2 1015.6S
S MID LAKE BUOY  0950   54 49  170/ 10/ 12 1014.8F   1
KENOSHA   LAKESH 1000   65     190/  7/  8 1014.6F
$$

TC  - TEMPERATURE IN CELSIUS
VSB - VISIBILITY IN STATUTE MILES
WCI - WIND CHILL INDEX
HX  - HEAT INDEX





USA.gov is the U.S. government's official web portal to all federal, state and local government web resources and services.